This is the latest recevied weather packets stored in our database for station/object K4GSL. If no packets are shown the sender has not sent any weather packets the latest 10 day(s).
| Time | Temp. | Humidity | Pressure | Rain* | Wind** | Luminosity | Snow |
|---|---|---|---|---|---|---|---|
| 1777928405 | 18.89° C | 73% | 1017.6 hPa | 0 mm | - | 729 W/m² | - |
| 1777928102 | 18.89° C | 73% | 1017.5 hPa | 0 mm | - | 707 W/m² | - |
| 1777927800 | 18.33° C | 73% | 1017.6 hPa | 0 mm | - | 275 W/m² | - |
| 1777927498 | 17.78° C | 74% | 1017.4 hPa | 0 mm | - | 461 W/m² | - |
| 1777927197 | 17.78° C | 74% | 1017.8 hPa | 0 mm | - | 348 W/m² | - |
| 1777926895 | 17.78° C | 73% | 1017.9 hPa | 0 mm | - | 387 W/m² | - |
| 1777926590 | 17.78° C | 74% | 1017.6 hPa | 0 mm | - | 662 W/m² | - |
| 1777926287 | 17.78° C | 73% | 1017.6 hPa | 0 mm | - | 712 W/m² | - |
| 1777925984 | 18.33° C | 74% | 1017.6 hPa | 0 mm | - | 652 W/m² | - |
| 1777925681 | 18.33° C | 73% | 1017.9 hPa | 0 mm | - | 687 W/m² | - |
| 1777925379 | 18.33° C | 73% | 1017.8 hPa | 0 mm | - | 676 W/m² | - |
| 1777925075 | 17.78° C | 74% | 1017.8 hPa | 0 mm | - | 265 W/m² | - |
| 1777924772 | 17.22° C | 74% | 1017.8 hPa | 0 mm | - | 375 W/m² | - |
| 1777924468 | 17.78° C | 74% | 1017.9 hPa | 0 mm | - | 300 W/m² | - |
| 1777924164 | 17.78° C | 75% | 1017.9 hPa | 0 mm | - | 438 W/m² | - |
| 1777923860 | 16.67° C | 76% | 1018 hPa | 0 mm | - | 422 W/m² | - |
| 1777923556 | 17.22° C | 74% | 1017.9 hPa | 0 mm | - | 317 W/m² | - |
| 1777923254 | 17.22° C | 75% | 1017.9 hPa | 0 mm | - | 347 W/m² | - |
| 1777922953 | 16.67° C | 76% | 1017.9 hPa | 0 mm | - | 383 W/m² | - |
| 1777922649 | 17.22° C | 76% | 1017.9 hPa | 0 mm | - | 280 W/m² | - |
| 1777922348 | 16.67° C | 75% | 1018.1 hPa | 0 mm | - | 335 W/m² | - |
| 1777922046 | 16.67° C | 76% | 1018 hPa | 0 mm | - | 298 W/m² | - |
| 1777921741 | 16.67° C | 77% | 1018.2 hPa | 0 mm | - | 261 W/m² | - |
| 1777921437 | 16.67° C | 77% | 1018 hPa | 0 mm | - | 263 W/m² | - |
| 1777921134 | 16.11° C | 78% | 1018 hPa | 0 mm | - | 271 W/m² | - |
* Rain latest hour (hover to see other rain measurements)
** Current wind speed in m/s (hover to see current wind gust speed)